Location: La Sioule Rivi�re
(46.3664°N, 3.3197°E)
Time: 12:49:09
(UTC+00:00)

Okean-O - Pass Details

Date: 29 October 2020
Orbit: 638 x 641 km, 98.2° (Epoch: 23 November)

Event Time Altitude Azimuth Distance (km) Brightness Sun altitude
Rises 17:58:41 0° 157° (SSE) 2,934 5.8 -14.8°
Reaches altitude 10° 18:00:53 10° 155° (SSE) 2,029 5.0 -15.1°
Maximum altitude 18:05:16 67° 74° (ENE) 696 2.5 -15.9°
Drops below altitude 10° 18:09:42 10° 351° (N) 2,043 5.3 -16.7°
Sets 18:11:55 0° 349° (N) 2,957 6.2 -17.0°
